Time,TemperatureF,DewpointF,PressureIn,WindDirection,WindDirectionDegrees,WindSpeedMPH,WindSpeedGustMPH,Humidity,HourlyPrecipIn,Conditions,Clouds,dailyrainin,SoftwareType,DateUTC
2013-03-27 00:04:00,32.2,20.7,30.65,NNW,338,1.0,3.0,62,0.00,,,0.00,meteohub,2013-03-27 06:04:00,
2013-03-27 00:09:00,31.6,20.1,30.65,NNE,22,2.0,3.0,62,0.00,,,0.00,meteohub,2013-03-27 06:09:00,
2013-03-27 00:14:00,31.1,20.7,30.65,ENE,68,0.0,3.0,65,0.00,,,0.00,meteohub,2013-03-27 06:14:00,
2013-03-27 00:19:00,31.1,21.4,30.65,East,90,0.0,2.0,67,0.00,,,0.00,meteohub,2013-03-27 06:19:00,
2013-03-27 00:24:00,30.4,20.8,30.65,ENE,68,0.0,2.0,67,0.00,,,0.00,meteohub,2013-03-27 06:24:00,
2013-03-27 00:29:00,30.2,22.3,30.65,NE,45,0.0,1.0,72,0.00,,,0.00,meteohub,2013-03-27 06:29:00,
2013-03-27 00:35:00,30.0,20.8,30.62,NNE,22,1.0,1.0,68,0.00,,,0.00,meteohub,2013-03-27 06:35:00,
2013-03-27 00:40:00,29.8,20.7,30.62,NNE,22,2.0,2.0,68,0.00,,,0.00,meteohub,2013-03-27 06:40:00,
2013-03-27 00:45:00,29.7,21.4,30.62,WNW,292,1.0,2.0,71,0.00,,,0.00,meteohub,2013-03-27 06:45:00,
2013-03-27 00:51:00,29.3,20.8,30.62,ENE,68,1.0,2.0,70,0.00,,,0.00,meteohub,2013-03-27 06:51:00,
2013-03-27 00:56:00,29.5,22.6,30.62,East,90,3.0,3.0,75,0.00,,,0.00,meteohub,2013-03-27 06:56:00,
2013-03-27 01:01:00,30.0,22.8,30.62,ESE,112,1.0,3.0,74,0.00,,,0.00,meteohub,2013-03-27 07:01:00,
2013-03-27 01:06:00,30.0,21.7,30.62,WNW,292,0.0,3.0,71,0.00,,,0.00,meteohub,2013-03-27 07:06:00,
2013-03-27 01:11:00,29.3,20.8,30.62,NNE,22,2.0,3.0,70,0.00,,,0.00,meteohub,2013-03-27 07:11:00,
2013-03-27 01:17:00,29.5,21.9,30.62,WNW,292,1.0,2.0,73,0.00,,,0.00,meteohub,2013-03-27 07:17:00,
2013-03-27 01:22:00,30.7,22.5,30.62,East,90,2.0,3.0,71,0.00,,,0.00,meteohub,2013-03-27 07:22:00,
2013-03-27 01:27:00,31.1,22.5,30.62,NNW,338,2.0,3.0,70,0.00,,,0.00,meteohub,2013-03-27 07:27:00,
2013-03-27 01:32:00,30.9,21.9,30.62,ESE,112,2.0,3.0,69,0.00,,,0.00,meteohub,2013-03-27 07:32:00,
2013-03-27 01:37:00,31.3,21.9,30.62,SSE,158,1.0,3.0,68,0.00,,,0.00,meteohub,2013-03-27 07:37:00,
2013-03-27 01:42:00,31.5,22.5,30.62,ESE,112,3.0,3.0,69,0.00,,,0.00,meteohub,2013-03-27 07:42:00,
2013-03-27 01:48:00,31.1,21.7,30.62,NNW,338,2.0,5.0,68,0.00,,,0.00,meteohub,2013-03-27 07:48:00,
2013-03-27 01:53:00,30.9,21.6,30.62,ENE,68,2.0,5.0,68,0.00,,,0.00,meteohub,2013-03-27 07:53:00,
2013-03-27 01:58:00,31.1,21.7,30.62,NNE,22,0.0,5.0,68,0.00,,,0.00,meteohub,2013-03-27 07:58:00,
2013-03-27 02:04:00,31.1,21.7,30.62,East,90,0.0,3.0,68,0.00,,,0.00,meteohub,2013-03-27 08:04:00,
2013-03-27 02:09:00,30.9,21.6,30.62,NE,45,2.0,3.0,68,0.00,,,0.00,meteohub,2013-03-27 08:09:00,
2013-03-27 02:14:00,30.9,21.2,30.62,NNE,22,1.0,3.0,67,0.00,,,0.00,meteohub,2013-03-27 08:14:00,
2013-03-27 02:19:00,31.1,22.1,30.62,East,90,1.0,3.0,69,0.00,,,0.00,meteohub,2013-03-27 08:19:00,
2013-03-27 02:24:00,30.7,21.4,30.62,NW,315,0.0,3.0,68,0.00,,,0.00,meteohub,2013-03-27 08:24:00,
2013-03-27 02:30:00,30.4,21.0,30.62,NNW,338,1.0,2.0,68,0.00,,,0.00,meteohub,2013-03-27 08:30:00,
2013-03-27 02:35:00,30.9,22.3,30.59,NNE,22,3.0,3.0,70,0.00,,,0.00,meteohub,2013-03-27 08:35:00,
2013-03-27 02:40:00,31.1,22.8,30.59,NNW,338,3.0,3.0,71,0.00,,,0.00,meteohub,2013-03-27 08:40:00,
2013-03-27 02:46:00,30.6,21.9,30.59,NNE,22,0.0,3.0,70,0.00,,,0.00,meteohub,2013-03-27 08:46:00,
2013-03-27 02:51:00,30.6,22.3,30.62,NNW,338,2.0,3.0,71,0.00,,,0.00,meteohub,2013-03-27 08:51:00,
2013-03-27 02:56:00,31.1,22.8,30.62,WNW,292,2.0,3.0,71,0.00,,,0.00,meteohub,2013-03-27 08:56:00,
2013-03-27 03:02:00,30.4,22.1,30.62,NNE,22,2.0,3.0,71,0.00,,,0.00,meteohub,2013-03-27 09:02:00,
2013-03-27 03:07:00,30.4,22.5,30.62,NNE,22,2.0,3.0,72,0.00,,,0.00,meteohub,2013-03-27 09:07:00,
2013-03-27 03:12:00,31.1,23.2,30.62,NNE,22,0.0,3.0,72,0.00,,,0.00,meteohub,2013-03-27 09:12:00,
2013-03-27 03:17:00,31.3,23.4,30.62,NNE,22,3.0,3.0,72,0.00,,,0.00,meteohub,2013-03-27 09:17:00,
2013-03-27 03:22:00,31.8,23.5,30.62,NNE,22,0.0,3.0,71,0.00,,,0.00,meteohub,2013-03-27 09:22:00,
2013-03-27 03:27:00,32.2,23.5,30.62,ENE,68,0.0,3.0,70,0.00,,,0.00,meteohub,2013-03-27 09:27:00,
2013-03-27 03:32:00,31.8,23.9,30.62,SSW,202,1.0,3.0,72,0.00,,,0.00,meteohub,2013-03-27 09:32:00,
2013-03-27 03:37:00,31.3,23.0,30.62,NE,45,1.0,4.0,71,0.00,,,0.00,meteohub,2013-03-27 09:37:00,
2013-03-27 03:42:00,30.9,22.6,30.62,ENE,68,1.0,4.0,71,0.00,,,0.00,meteohub,2013-03-27 09:42:00,
2013-03-27 03:47:00,30.7,23.2,30.62,ESE,112,2.0,4.0,73,0.00,,,0.00,meteohub,2013-03-27 09:47:00,
2013-03-27 03:53:00,30.4,22.5,30.62,East,90,0.0,3.0,72,0.00,,,0.00,meteohub,2013-03-27 09:53:00,
2013-03-27 03:58:00,30.4,22.8,30.62,WSW,248,0.0,3.0,73,0.00,,,0.00,meteohub,2013-03-27 09:58:00,
2013-03-27 04:03:00,29.8,21.9,30.62,NNE,22,3.0,4.0,72,0.00,,,0.00,meteohub,2013-03-27 10:03:00,
2013-03-27 04:08:00,29.8,22.8,30.62,ESE,112,1.0,4.0,75,0.00,,,0.00,meteohub,2013-03-27 10:08:00,
2013-03-27 04:13:00,30.4,23.4,30.62,ENE,68,0.0,4.0,75,0.00,,,0.00,meteohub,2013-03-27 10:13:00,
2013-03-27 04:18:00,30.2,23.2,30.62,East,90,0.0,4.0,75,0.00,,,0.00,meteohub,2013-03-27 10:18:00,
2013-03-27 04:23:00,30.6,23.4,30.62,ENE,68,0.0,3.0,74,0.00,,,0.00,meteohub,2013-03-27 10:23:00,
2013-03-27 04:29:00,30.4,23.2,30.62,ENE,68,0.0,2.0,74,0.00,,,0.00,meteohub,2013-03-27 10:29:00,
2013-03-27 04:34:00,30.6,23.5,30.62,NNW,338,1.0,2.0,75,0.00,,,0.00,meteohub,2013-03-27 10:34:00,
2013-03-27 04:39:00,30.7,24.1,30.62,NE,45,0.0,2.0,76,0.00,,,0.00,meteohub,2013-03-27 10:39:00,
2013-03-27 04:44:00,30.9,24.6,30.62,East,90,0.0,2.0,77,0.00,,,0.00,meteohub,2013-03-27 10:44:00,
2013-03-27 04:50:00,31.1,24.4,30.62,ENE,68,0.0,2.0,76,0.00,,,0.00,meteohub,2013-03-27 10:50:00,
2013-03-27 04:55:00,31.1,24.4,30.62,NNW,338,0.0,2.0,76,0.00,,,0.00,meteohub,2013-03-27 10:55:00,
2013-03-27 05:00:00,30.9,24.3,30.62,NNE,22,0.0,2.0,76,0.00,,,0.00,meteohub,2013-03-27 11:00:00,
2013-03-27 05:05:00,30.6,23.5,30.62,NNE,22,0.0,2.0,75,0.00,,,0.00,meteohub,2013-03-27 11:05:00,
2013-03-27 05:10:00,30.4,24.4,30.62,ENE,68,2.0,2.0,78,0.00,,,0.00,meteohub,2013-03-27 11:10:00,
2013-03-27 05:15:00,30.4,23.4,30.62,NNE,22,2.0,2.0,75,0.00,,,0.00,meteohub,2013-03-27 11:15:00,
2013-03-27 05:21:00,30.2,24.3,30.62,ENE,68,0.0,2.0,78,0.00,,,0.00,meteohub,2013-03-27 11:21:00,
2013-03-27 05:26:00,29.8,23.5,30.62,ENE,68,0.0,2.0,77,0.00,,,0.00,meteohub,2013-03-27 11:26:00,
2013-03-27 05:31:00,29.3,22.6,30.62,NNE,22,3.0,3.0,76,0.00,,,0.00,meteohub,2013-03-27 11:31:00,
2013-03-27 05:37:00,29.5,23.7,30.62,East,90,1.0,3.0,79,0.00,,,0.00,meteohub,2013-03-27 11:37:00,
2013-03-27 05:42:00,29.5,23.7,30.62,East,90,1.0,3.0,79,0.00,,,0.00,meteohub,2013-03-27 11:42:00,
2013-03-27 05:47:00,29.3,23.4,30.62,ENE,68,0.0,3.0,78,0.00,,,0.00,meteohub,2013-03-27 11:47:00,
2013-03-27 05:52:00,29.5,23.2,30.62,WNW,292,0.0,3.0,77,0.00,,,0.00,meteohub,2013-03-27 11:52:00,
2013-03-27 05:57:00,29.3,23.0,30.62,NNE,22,0.0,3.0,77,0.00,,,0.00,meteohub,2013-03-27 11:57:00,
2013-03-27 06:02:00,28.9,22.6,30.62,ENE,68,1.0,3.0,77,0.00,,,0.00,meteohub,2013-03-27 12:02:00,
2013-03-27 06:07:00,29.1,24.3,30.62,East,90,3.0,3.0,82,0.00,,,0.00,meteohub,2013-03-27 12:07:00,
2013-03-27 06:12:00,29.5,24.4,30.62,East,90,0.0,3.0,81,0.00,,,0.00,meteohub,2013-03-27 12:12:00,
2013-03-27 06:17:00,29.1,23.2,30.62,NNW,338,0.0,3.0,78,0.00,,,0.00,meteohub,2013-03-27 12:17:00,
2013-03-27 06:22:00,28.8,22.8,30.65,NE,45,0.0,3.0,78,0.00,,,0.00,meteohub,2013-03-27 12:22:00,
2013-03-27 06:27:00,28.6,22.6,30.65,East,90,2.0,2.0,78,0.00,,,0.00,meteohub,2013-03-27 12:27:00,
2013-03-27 06:32:00,28.8,23.0,30.65,ENE,68,0.0,2.0,79,0.00,,,0.00,meteohub,2013-03-27 12:32:00,
2013-03-27 06:37:00,28.6,22.6,30.65,ENE,68,0.0,2.0,78,0.00,,,0.00,meteohub,2013-03-27 12:37:00,
2013-03-27 06:42:00,28.4,23.0,30.65,ENE,68,1.0,2.0,80,0.00,,,0.00,meteohub,2013-03-27 12:42:00,
2013-03-27 06:47:00,28.4,22.8,30.65,ENE,68,0.0,3.0,79,0.00,,,0.00,meteohub,2013-03-27 12:47:00,
2013-03-27 06:52:00,28.2,22.6,30.65,ESE,112,0.0,3.0,79,0.00,,,0.00,meteohub,2013-03-27 12:52:00,
2013-03-27 06:58:00,28.4,23.0,30.65,ESE,112,0.0,3.0,80,0.00,,,0.00,meteohub,2013-03-27 12:58:00,
2013-03-27 07:03:00,28.0,22.5,30.65,NNE,22,0.0,1.0,79,0.00,,,0.00,meteohub,2013-03-27 13:03:00,
2013-03-27 07:08:00,28.0,22.5,30.65,NNW,338,1.0,2.0,79,0.00,,,0.00,meteohub,2013-03-27 13:08:00,
2013-03-27 07:13:00,27.9,22.3,30.65,NE,45,1.0,2.0,79,0.00,,,0.00,meteohub,2013-03-27 13:13:00,
2013-03-27 07:18:00,28.0,23.2,30.68,ENE,68,2.0,2.0,82,0.00,,,0.00,meteohub,2013-03-27 13:18:00,
2013-03-27 07:23:00,28.2,22.8,30.68,ENE,68,0.0,2.0,80,0.00,,,0.00,meteohub,2013-03-27 13:23:00,
2013-03-27 07:29:00,28.4,23.0,30.68,NNW,338,4.0,4.0,80,0.00,,,0.00,meteohub,2013-03-27 13:29:00,
2013-03-27 07:34:00,28.4,24.3,30.65,NNW,338,2.0,3.0,84,0.00,,,0.00,meteohub,2013-03-27 13:34:00,
2013-03-27 07:39:00,28.6,24.1,30.65,NNE,22,0.0,4.0,83,0.00,,,0.00,meteohub,2013-03-27 13:39:00,
2013-03-27 07:44:00,28.6,23.7,30.65,NNE,22,0.0,4.0,82,0.00,,,0.00,meteohub,2013-03-27 13:44:00,
2013-03-27 07:47:00,28.6,23.7,30.65,NNW,338,1.0,3.0,82,0.00,,,0.00,meteohub,2013-03-27 13:47:00,
2013-03-27 07:52:00,28.8,24.3,30.65,ENE,68,2.0,2.0,83,0.00,,,0.00,meteohub,2013-03-27 13:52:00,
2013-03-27 07:57:00,28.9,24.8,30.65,NE,45,2.0,2.0,84,0.00,,,0.00,meteohub,2013-03-27 13:57:00,
2013-03-27 08:02:00,29.7,25.2,30.65,East,90,1.0,2.0,83,0.00,,,0.00,meteohub,2013-03-27 14:02:00,
2013-03-27 08:07:00,30.9,26.4,30.62,ENE,68,0.0,2.0,83,0.00,,,0.00,meteohub,2013-03-27 14:07:00,
2013-03-27 08:12:00,33.3,29.3,30.62,NNW,338,0.0,2.0,85,0.00,,,0.00,meteohub,2013-03-27 14:12:00,
2013-03-27 08:17:00,35.1,30.2,30.62,ESE,112,1.0,2.0,82,0.00,,,0.00,meteohub,2013-03-27 14:17:00,
2013-03-27 08:22:00,38.5,32.9,30.62,ENE,68,0.0,2.0,80,0.00,,,0.00,meteohub,2013-03-27 14:22:00,
2013-03-27 08:27:00,39.9,32.0,30.62,East,90,0.0,2.0,73,0.00,,,0.00,meteohub,2013-03-27 14:27:00,
2013-03-27 08:32:00,41.0,31.6,30.62,SSE,158,0.0,2.0,69,0.00,,,0.00,meteohub,2013-03-27 14:32:00,
2013-03-27 08:37:00,43.0,32.7,30.65,NNE,22,0.0,2.0,67,0.00,,,0.00,meteohub,2013-03-27 14:37:00,
2013-03-27 08:42:00,44.1,31.8,30.65,SSE,158,1.0,2.0,62,0.00,,,0.00,meteohub,2013-03-27 14:42:00,
2013-03-27 08:48:00,44.6,31.6,30.65,ESE,112,2.0,2.0,60,0.00,,,0.00,meteohub,2013-03-27 14:48:00,
2013-03-27 08:53:00,46.0,31.6,30.62,ESE,112,0.0,2.0,57,0.00,,,0.00,meteohub,2013-03-27 14:53:00,
2013-03-27 08:58:00,45.3,29.3,30.62,SSW,202,2.0,2.0,53,0.00,,,0.00,meteohub,2013-03-27 14:58:00,
2013-03-27 09:03:00,46.0,29.5,30.65,SSE,158,2.0,3.0,52,0.00,,,0.00,meteohub,2013-03-27 15:03:00,
2013-03-27 09:09:00,45.7,29.1,30.65,SSW,202,2.0,3.0,52,0.00,,,0.00,meteohub,2013-03-27 15:09:00,
2013-03-27 09:14:00,46.0,29.5,30.65,SSE,158,4.0,4.0,52,0.00,,,0.00,meteohub,2013-03-27 15:14:00,
2013-03-27 09:19:00,45.1,28.6,30.65,SSW,202,3.0,5.0,52,0.00,,,0.00,meteohub,2013-03-27 15:19:00,
2013-03-27 09:24:00,44.8,28.2,30.65,SSW,202,3.0,5.0,52,0.00,,,0.00,meteohub,2013-03-27 15:24:00,
2013-03-27 09:30:00,45.9,29.7,30.65,SSE,158,2.0,5.0,53,0.00,,,0.00,meteohub,2013-03-27 15:30:00,
2013-03-27 09:35:00,46.6,30.0,30.65,SSE,158,3.0,4.0,52,0.00,,,0.00,meteohub,2013-03-27 15:35:00,
2013-03-27 09:40:00,47.1,30.4,30.65,SSW,202,4.0,5.0,52,0.00,,,0.00,meteohub,2013-03-27 15:40:00,
2013-03-27 09:46:00,47.3,30.6,30.65,ESE,112,2.0,5.0,52,0.00,,,0.00,meteohub,2013-03-27 15:46:00,
2013-03-27 09:51:00,47.5,30.4,30.65,SSE,158,5.0,5.0,51,0.00,,,0.00,meteohub,2013-03-27 15:51:00,
2013-03-27 09:56:00,48.2,30.4,30.65,ESE,112,3.0,5.0,50,0.00,,,0.00,meteohub,2013-03-27 15:56:00,
2013-03-27 10:02:00,47.7,30.4,30.65,South,180,4.0,5.0,51,0.00,,,0.00,meteohub,2013-03-27 16:02:00,
2013-03-27 10:07:00,47.3,30.2,30.65,SSE,158,5.0,5.0,51,0.00,,,0.00,meteohub,2013-03-27 16:07:00,
2013-03-27 10:12:00,47.8,30.6,30.65,SSE,158,4.0,6.0,51,0.00,,,0.00,meteohub,2013-03-27 16:12:00,
2013-03-27 10:17:00,48.7,30.9,30.65,ESE,112,3.0,6.0,50,0.00,,,0.00,meteohub,2013-03-27 16:17:00,
2013-03-27 10:22:00,49.3,31.5,30.65,SSE,158,4.0,6.0,50,0.00,,,0.00,meteohub,2013-03-27 16:22:00,
2013-03-27 10:28:00,49.3,32.0,30.65,SSE,158,3.0,6.0,51,0.00,,,0.00,meteohub,2013-03-27 16:28:00,
2013-03-27 10:33:00,49.6,31.8,30.65,South,180,4.0,6.0,50,0.00,,,0.00,meteohub,2013-03-27 16:33:00,
2013-03-27 10:38:00,48.7,31.5,30.68,SSE,158,4.0,6.0,51,0.00,,,0.00,meteohub,2013-03-27 16:38:00,
2013-03-27 10:43:00,49.5,32.2,30.68,South,180,6.0,8.0,51,0.00,,,0.00,meteohub,2013-03-27 16:43:00,
2013-03-27 10:49:00,49.6,31.8,30.65,SSE,158,4.0,8.0,50,0.00,,,0.00,meteohub,2013-03-27 16:49:00,
2013-03-27 10:54:00,50.0,31.6,30.65,SSW,202,2.0,6.0,49,0.00,,,0.00,meteohub,2013-03-27 16:54:00,
2013-03-27 10:59:00,49.8,32.0,30.65,SSE,158,3.0,6.0,50,0.00,,,0.00,meteohub,2013-03-27 16:59:00,
2013-03-27 11:04:00,50.2,31.8,30.68,SSW,202,2.0,6.0,49,0.00,,,0.00,meteohub,2013-03-27 17:04:00,
2013-03-27 11:10:00,50.0,31.6,30.68,SSE,158,3.0,6.0,49,0.00,,,0.00,meteohub,2013-03-27 17:10:00,
2013-03-27 11:15:00,52.5,34.0,30.68,SSE,158,3.0,6.0,49,0.00,,,0.00,meteohub,2013-03-27 17:15:00,
2013-03-27 11:20:00,53.1,34.0,30.65,SSW,202,4.0,5.0,48,0.00,,,0.00,meteohub,2013-03-27 17:20:00,
2013-03-27 11:25:00,52.5,33.4,30.65,WSW,248,3.0,5.0,48,0.00,,,0.00,meteohub,2013-03-27 17:25:00,
2013-03-27 11:30:00,53.4,34.3,30.65,SSE,158,3.0,5.0,48,0.00,,,0.00,meteohub,2013-03-27 17:30:00,
2013-03-27 11:35:00,53.2,34.2,30.68,SSE,158,3.0,5.0,48,0.00,,,0.00,meteohub,2013-03-27 17:35:00,
2013-03-27 11:40:00,53.2,33.6,30.68,SSE,158,5.0,5.0,47,0.00,,,0.00,meteohub,2013-03-27 17:40:00,
2013-03-27 11:45:00,53.6,32.2,30.68,SSE,158,3.0,9.0,44,0.00,,,0.00,meteohub,2013-03-27 17:45:00,
2013-03-27 11:50:00,54.0,31.5,30.68,SSW,202,4.0,11.0,42,0.00,,,0.00,meteohub,2013-03-27 17:50:00,
2013-03-27 11:55:00,53.6,31.1,30.68,SE,135,6.0,11.0,42,0.00,,,0.00,meteohub,2013-03-27 17:55:00,
2013-03-27 12:00:00,54.3,31.1,30.68,SSE,158,6.0,7.0,41,0.00,,,0.00,meteohub,2013-03-27 18:00:00,
2013-03-27 12:06:00,53.6,31.1,30.65,SSE,158,6.0,7.0,42,0.00,,,0.00,meteohub,2013-03-27 18:06:00,
2013-03-27 12:12:00,54.1,32.7,30.65,SE,135,4.0,7.0,44,0.00,,,0.00,meteohub,2013-03-27 18:12:00,
2013-03-27 12:17:00,54.3,32.4,30.65,SSE,158,8.0,8.0,43,0.00,,,0.00,meteohub,2013-03-27 18:17:00,
2013-03-27 12:22:00,53.1,31.8,30.65,SSW,202,3.0,8.0,44,0.00,,,0.00,meteohub,2013-03-27 18:22:00,
2013-03-27 12:27:00,53.6,31.6,30.65,SSE,158,3.0,8.0,43,0.00,,,0.00,meteohub,2013-03-27 18:27:00,
2013-03-27 12:32:00,53.4,33.8,30.65,SSE,158,3.0,9.0,47,0.00,,,0.00,meteohub,2013-03-27 18:32:00,
2013-03-27 12:37:00,53.1,33.4,30.65,SSE,158,5.0,9.0,47,0.00,,,0.00,meteohub,2013-03-27 18:37:00,
2013-03-27 12:42:00,53.1,32.9,30.65,SSE,158,6.0,9.0,46,0.00,,,0.00,meteohub,2013-03-27 18:42:00,
2013-03-27 12:47:00,56.1,35.6,30.65,SSE,158,3.0,6.0,46,0.00,,,0.00,meteohub,2013-03-27 18:47:00,
2013-03-27 12:54:00,55.9,35.4,30.65,SSW,202,3.0,6.0,46,0.00,,,0.00,meteohub,2013-03-27 18:54:00,
2013-03-27 12:59:00,54.5,34.7,30.65,SSW,202,6.0,6.0,47,0.00,,,0.00,meteohub,2013-03-27 18:59:00,
2013-03-27 13:07:00,57.2,36.7,30.65,SSW,202,4.0,6.0,46,0.00,,,0.00,meteohub,2013-03-27 19:07:00,
2013-03-27 13:25:00,55.2,36.5,30.65,SSW,202,5.0,7.0,49,0.00,,,0.00,meteohub,2013-03-27 19:25:00,
2013-03-27 13:30:00,55.9,36.0,30.65,SSE,158,3.0,7.0,47,0.00,,,0.00,meteohub,2013-03-27 19:30:00,
2013-03-27 13:35:00,55.2,35.4,30.65,SSE,158,5.0,6.0,47,0.00,,,0.00,meteohub,2013-03-27 19:35:00,
2013-03-27 13:41:00,55.8,36.3,30.65,SSW,202,5.0,8.0,48,0.00,,,0.00,meteohub,2013-03-27 19:41:00,
2013-03-27 13:46:00,56.5,36.0,30.65,South,180,2.0,9.0,46,0.00,,,0.00,meteohub,2013-03-27 19:46:00,
2013-03-27 13:51:00,56.8,36.3,30.65,SSW,202,4.0,9.0,46,0.00,,,0.00,meteohub,2013-03-27 19:51:00,
2013-03-27 13:56:00,56.5,36.0,30.65,SSW,202,4.0,9.0,46,0.00,,,0.00,meteohub,2013-03-27 19:56:00,
2013-03-27 14:02:00,55.6,35.2,30.65,South,180,6.0,8.0,46,0.00,,,0.00,meteohub,2013-03-27 20:02:00,
2013-03-27 14:07:00,57.6,36.5,30.65,ESE,112,2.0,8.0,45,0.00,,,0.00,meteohub,2013-03-27 20:07:00,
2013-03-27 14:12:00,56.7,36.1,30.65,SSW,202,4.0,9.0,46,0.00,,,0.00,meteohub,2013-03-27 20:12:00,
2013-03-27 14:17:00,56.1,35.6,30.65,SSW,202,6.0,9.0,46,0.00,,,0.00,meteohub,2013-03-27 20:17:00,
2013-03-27 14:22:00,57.7,36.0,30.65,SSE,158,5.0,8.0,44,0.00,,,0.00,meteohub,2013-03-27 20:22:00,
2013-03-27 14:27:00,58.8,37.0,30.65,SSW,202,3.0,8.0,44,0.00,,,0.00,meteohub,2013-03-27 20:27:00,
2013-03-27 14:32:00,58.1,36.3,30.65,SSE,158,6.0,7.0,44,0.00,,,0.00,meteohub,2013-03-27 20:32:00,
2013-03-27 14:37:00,54.5,33.6,30.62,SSW,202,4.0,8.0,45,0.00,,,0.00,meteohub,2013-03-27 20:37:00,
2013-03-27 14:42:00,53.2,32.5,30.62,ESE,112,4.0,8.0,45,0.00,,,0.00,meteohub,2013-03-27 20:42:00,
2013-03-27 14:47:00,52.9,33.3,30.62,South,180,4.0,8.0,47,0.00,,,0.00,meteohub,2013-03-27 20:47:00,
2013-03-27 14:53:00,54.9,33.4,30.62,SSW,202,5.0,6.0,44,0.00,,,0.00,meteohub,2013-03-27 20:53:00,
2013-03-27 14:58:00,56.8,35.8,30.62,SSE,158,9.0,9.0,45,0.00,,,0.00,meteohub,2013-03-27 20:58:00,
2013-03-27 15:03:00,57.4,34.5,30.65,SE,135,5.0,9.0,42,0.00,,,0.00,meteohub,2013-03-27 21:03:00,
2013-03-27 15:08:00,57.0,34.7,30.65,SSE,158,6.0,9.0,43,0.00,,,0.00,meteohub,2013-03-27 21:08:00,
2013-03-27 15:14:00,57.4,35.1,30.65,SSW,202,6.0,9.0,43,0.00,,,0.00,meteohub,2013-03-27 21:14:00,
2013-03-27 15:19:00,55.4,32.7,30.68,ESE,112,3.0,9.0,42,0.00,,,0.00,meteohub,2013-03-27 21:19:00,
2013-03-27 15:24:00,54.5,32.5,30.68,SSE,158,5.0,9.0,43,0.00,,,0.00,meteohub,2013-03-27 21:24:00,
2013-03-27 15:29:00,55.8,33.6,30.68,South,180,5.0,9.0,43,0.00,,,0.00,meteohub,2013-03-27 21:29:00,
2013-03-27 15:35:00,52.9,31.1,30.62,WSW,248,3.0,11.0,43,0.00,,,0.00,meteohub,2013-03-27 21:35:00,
2013-03-27 15:40:00,55.2,33.1,30.62,SSE,158,10.0,11.0,43,0.00,,,0.00,meteohub,2013-03-27 21:40:00,
2013-03-27 15:45:00,56.7,35.1,30.62,SSW,202,3.0,11.0,44,0.00,,,0.00,meteohub,2013-03-27 21:45:00,
2013-03-27 15:47:00,56.5,34.9,30.62,ESE,112,6.0,10.0,44,0.00,,,0.00,meteohub,2013-03-27 21:47:00,
2013-03-27 15:50:00,57.4,35.1,30.65,SSE,158,3.0,10.0,43,0.00,,,0.00,meteohub,2013-03-27 21:50:00,
2013-03-27 15:55:00,55.8,33.1,30.65,SSE,158,7.0,8.0,42,0.00,,,0.00,meteohub,2013-03-27 21:55:00,
2013-03-27 16:00:00,55.8,33.6,30.65,SSW,202,5.0,10.0,43,0.00,,,0.00,meteohub,2013-03-27 22:00:00,
2013-03-27 16:06:00,56.5,33.6,30.68,SSE,158,6.0,12.0,42,0.00,,,0.00,meteohub,2013-03-27 22:06:00,
2013-03-27 16:11:00,57.0,34.2,30.68,ESE,112,1.0,12.0,42,0.00,,,0.00,meteohub,2013-03-27 22:11:00,
2013-03-27 16:16:00,57.6,35.2,30.68,SSE,158,6.0,12.0,43,0.00,,,0.00,meteohub,2013-03-27 22:16:00,
2013-03-27 16:21:00,57.6,35.2,30.65,SSE,158,9.0,10.0,43,0.00,,,0.00,meteohub,2013-03-27 22:21:00,
2013-03-27 16:27:00,56.8,34.0,30.65,ESE,112,9.0,11.0,42,0.00,,,0.00,meteohub,2013-03-27 22:27:00,
2013-03-27 16:31:00,55.8,33.1,30.65,SSE,158,8.0,11.0,42,0.00,,,0.00,meteohub,2013-03-27 22:31:00,
2013-03-27 16:37:00,56.5,33.6,30.65,SSE,158,6.0,11.0,42,0.00,,,0.00,meteohub,2013-03-27 22:37:00,
2013-03-27 16:42:00,55.9,33.3,30.65,SE,135,6.0,12.0,42,0.00,,,0.00,meteohub,2013-03-27 22:42:00,
2013-03-27 16:47:00,56.3,33.6,30.65,SSW,202,4.0,12.0,42,0.00,,,0.00,meteohub,2013-03-27 22:47:00,
2013-03-27 16:52:00,54.5,32.5,30.62,SSE,158,7.0,12.0,43,0.00,,,0.00,meteohub,2013-03-27 22:52:00,
2013-03-27 16:57:00,55.2,33.8,30.62,South,180,6.0,11.0,44,0.00,,,0.00,meteohub,2013-03-27 22:57:00,
2013-03-27 17:03:00,55.6,34.0,30.62,SSE,158,6.0,11.0,44,0.00,,,0.00,meteohub,2013-03-27 23:03:00,
2013-03-27 17:08:00,55.2,34.3,30.62,SSE,158,13.0,13.0,45,0.00,,,0.00,meteohub,2013-03-27 23:08:00,
2013-03-27 17:13:00,55.2,34.3,30.62,SSE,158,6.0,13.0,45,0.00,,,0.00,meteohub,2013-03-27 23:13:00,
2013-03-27 17:18:00,54.9,34.0,30.62,SSE,158,8.0,13.0,45,0.00,,,0.00,meteohub,2013-03-27 23:18:00,
2013-03-27 17:23:00,53.6,33.4,30.65,SSE,158,4.0,13.0,46,0.00,,,0.00,meteohub,2013-03-27 23:23:00,
2013-03-27 17:28:00,52.3,32.7,30.65,ESE,112,6.0,11.0,47,0.00,,,0.00,meteohub,2013-03-27 23:28:00,
2013-03-27 17:34:00,51.3,31.8,30.65,SSE,158,6.0,11.0,47,0.00,,,0.00,meteohub,2013-03-27 23:34:00,
2013-03-27 17:39:00,51.1,32.2,30.65,ESE,112,4.0,9.0,48,0.00,,,0.00,meteohub,2013-03-27 23:39:00,
2013-03-27 17:44:00,51.4,32.4,30.65,SSE,158,5.0,8.0,48,0.00,,,0.00,meteohub,2013-03-27 23:44:00,
2013-03-27 17:50:00,50.5,31.6,30.65,SSE,158,4.0,8.0,48,0.00,,,0.00,meteohub,2013-03-27 23:50:00,
2013-03-27 17:55:00,50.4,30.9,30.65,SSE,158,3.0,8.0,47,0.00,,,0.00,meteohub,2013-03-27 23:55:00,
2013-03-27 18:02:00,48.9,30.2,-100.00,SSE,158,6.0,9.0,48,0.00,,,0.00,meteohub,2013-03-28 00:02:00,
2013-03-27 18:07:00,48.7,30.6,30.65,South,180,5.0,6.0,49,0.00,,,0.00,meteohub,2013-03-28 00:07:00,
2013-03-27 18:13:00,49.6,31.3,30.65,SSE,158,6.0,6.0,49,0.00,,,0.00,meteohub,2013-03-28 00:13:00,
2013-03-27 18:18:00,49.3,30.9,30.65,SSE,158,9.0,11.0,49,0.00,,,0.00,meteohub,2013-03-28 00:18:00,
2013-03-27 18:23:00,48.2,30.0,30.65,SSW,202,6.0,11.0,49,0.00,,,0.00,meteohub,2013-03-28 00:23:00,
2013-03-27 18:29:00,47.7,30.0,30.65,SSE,158,5.0,11.0,50,0.00,,,0.00,meteohub,2013-03-28 00:29:00,
2013-03-27 18:34:00,46.9,29.3,30.68,SSE,158,4.0,10.0,50,0.00,,,0.00,meteohub,2013-03-28 00:34:00,
2013-03-27 18:39:00,46.6,28.9,30.68,SSW,202,4.0,9.0,50,0.00,,,0.00,meteohub,2013-03-28 00:39:00,
2013-03-27 18:44:00,46.0,28.9,30.68,SSW,202,4.0,7.0,51,0.00,,,0.00,meteohub,2013-03-28 00:44:00,
2013-03-27 18:50:00,45.3,28.8,30.65,SSW,202,4.0,6.0,52,0.00,,,0.00,meteohub,2013-03-28 00:50:00,
2013-03-27 18:55:00,45.0,28.4,30.65,SSE,158,3.0,6.0,52,0.00,,,0.00,meteohub,2013-03-28 00:55:00,
2013-03-27 19:00:00,44.6,28.9,30.65,SSE,158,3.0,5.0,54,0.00,,,0.00,meteohub,2013-03-28 01:00:00,
2013-03-27 19:05:00,44.1,29.5,30.68,SSE,158,2.0,3.0,56,0.00,,,0.00,meteohub,2013-03-28 01:05:00,
2013-03-27 19:10:00,43.9,29.7,30.68,SSW,202,3.0,4.0,57,0.00,,,0.00,meteohub,2013-03-28 01:10:00,
2013-03-27 19:16:00,43.5,29.8,30.68,SSW,202,2.0,4.0,58,0.00,,,0.00,meteohub,2013-03-28 01:16:00,
2013-03-27 19:21:00,43.2,29.5,30.68,SSE,158,2.0,4.0,58,0.00,,,0.00,meteohub,2013-03-28 01:21:00,
2013-03-27 19:26:00,42.8,29.5,30.68,SSE,158,2.0,3.0,59,0.00,,,0.00,meteohub,2013-03-28 01:26:00,
2013-03-27 19:32:00,42.3,29.5,30.68,SSW,202,0.0,3.0,60,0.00,,,0.00,meteohub,2013-03-28 01:32:00,
2013-03-27 19:37:00,41.9,29.1,30.68,SSE,158,2.0,3.0,60,0.00,,,0.00,meteohub,2013-03-28 01:37:00,
2013-03-27 19:42:00,41.2,28.8,30.68,ESE,112,2.0,3.0,61,0.00,,,0.00,meteohub,2013-03-28 01:42:00,
2013-03-27 19:47:00,40.6,29.1,30.68,ESE,112,2.0,2.0,63,0.00,,,0.00,meteohub,2013-03-28 01:47:00,
2013-03-27 19:52:00,40.5,28.9,30.68,ESE,112,2.0,3.0,63,0.00,,,0.00,meteohub,2013-03-28 01:52:00,
2013-03-27 19:57:00,40.3,29.1,30.68,ESE,112,2.0,3.0,64,0.00,,,0.00,meteohub,2013-03-28 01:57:00,
2013-03-27 20:02:00,39.6,27.7,30.68,NNW,338,0.0,3.0,62,0.00,,,0.00,meteohub,2013-03-28 02:02:00,
2013-03-27 20:07:00,39.2,27.3,30.71,NNW,338,0.0,3.0,62,0.00,,,0.00,meteohub,2013-03-28 02:07:00,
2013-03-27 20:13:00,39.0,27.5,30.71,NE,45,0.0,2.0,63,0.00,,,0.00,meteohub,2013-03-28 02:13:00,
2013-03-27 20:18:00,39.2,28.0,30.71,NNE,22,1.0,0.0,64,0.00,,,0.00,meteohub,2013-03-28 02:18:00,
2013-03-27 20:23:00,39.0,28.2,30.71,NNE,22,1.0,2.0,65,0.00,,,0.00,meteohub,2013-03-28 02:23:00,
2013-03-27 20:28:00,38.8,28.0,30.71,NNE,22,0.0,2.0,65,0.00,,,0.00,meteohub,2013-03-28 02:28:00,
2013-03-27 20:33:00,38.3,28.0,30.71,NNE,22,0.0,2.0,66,0.00,,,0.00,meteohub,2013-03-28 02:33:00,
2013-03-27 20:38:00,37.9,27.7,30.71,NNE,22,0.0,2.0,66,0.00,,,0.00,meteohub,2013-03-28 02:38:00,
2013-03-27 20:44:00,37.9,28.4,30.71,NNE,22,1.0,0.0,68,0.00,,,0.00,meteohub,2013-03-28 02:44:00,
2013-03-27 20:49:00,38.1,27.9,30.71,NW,315,3.0,3.0,66,0.00,,,0.00,meteohub,2013-03-28 02:49:00,
2013-03-27 20:54:00,37.6,28.0,30.71,ESE,112,0.0,3.0,68,0.00,,,0.00,meteohub,2013-03-28 02:54:00,
2013-03-27 20:59:00,38.3,29.1,30.71,ESE,112,1.0,3.0,69,0.00,,,0.00,meteohub,2013-03-28 02:59:00,
2013-03-27 21:04:00,37.9,28.8,30.71,NNW,338,3.0,3.0,69,0.00,,,0.00,meteohub,2013-03-28 03:04:00,
2013-03-27 21:09:00,37.0,28.2,30.71,ENE,68,0.0,3.0,70,0.00,,,0.00,meteohub,2013-03-28 03:09:00,
2013-03-27 21:15:00,37.0,28.2,30.71,NNW,338,2.0,3.0,70,0.00,,,0.00,meteohub,2013-03-28 03:15:00,
2013-03-27 21:20:00,36.3,28.2,30.71,NNW,338,3.0,3.0,72,0.00,,,0.00,meteohub,2013-03-28 03:20:00,
2013-03-27 21:25:00,36.3,30.2,30.71,NNE,22,4.0,4.0,78,0.00,,,0.00,meteohub,2013-03-28 03:25:00,
2013-03-27 21:30:00,36.9,30.9,30.71,WNW,292,0.0,4.0,79,0.00,,,0.00,meteohub,2013-03-28 03:30:00,
2013-03-27 21:35:00,36.1,29.3,30.71,NNE,22,3.0,4.0,76,0.00,,,0.00,meteohub,2013-03-28 03:35:00,
2013-03-27 21:41:00,35.8,29.7,30.71,NNW,338,2.0,4.0,78,0.00,,,0.00,meteohub,2013-03-28 03:41:00,
2013-03-27 21:46:00,35.6,28.8,30.71,NNW,338,2.0,3.0,76,0.00,,,0.00,meteohub,2013-03-28 03:46:00,
2013-03-27 21:51:00,34.9,28.8,30.71,NNW,338,2.0,4.0,78,0.00,,,0.00,meteohub,2013-03-28 03:51:00,
2013-03-27 21:56:00,34.5,28.8,30.71,NNE,22,4.0,4.0,79,0.00,,,0.00,meteohub,2013-03-28 03:56:00,
2013-03-27 22:00:00,34.5,29.3,30.71,NNW,338,2.0,4.0,81,0.00,,,0.00,meteohub,2013-03-28 04:00:00,
2013-03-27 22:01:00,34.5,29.3,30.71,NNE,22,2.0,4.0,81,0.00,,,0.00,meteohub,2013-03-28 04:01:00,
2013-03-27 22:02:00,34.5,29.7,30.71,NNE,22,4.0,4.0,82,0.00,,,0.00,meteohub,2013-03-28 04:02:00,
2013-03-27 22:07:00,34.5,31.1,30.71,NNE,22,5.0,5.0,87,0.00,,,0.00,meteohub,2013-03-28 04:07:00,
2013-03-27 22:12:00,34.9,31.5,30.71,NNW,338,3.0,5.0,87,0.00,,,0.00,meteohub,2013-03-28 04:12:00,
2013-03-27 22:18:00,34.9,30.2,30.71,NNE,22,2.0,5.0,83,0.00,,,0.00,meteohub,2013-03-28 04:18:00,
2013-03-27 22:23:00,34.9,29.7,30.71,NNW,338,2.0,5.0,81,0.00,,,0.00,meteohub,2013-03-28 04:23:00,
2013-03-27 22:28:00,34.9,29.7,30.71,NNW,338,3.0,4.0,81,0.00,,,0.00,meteohub,2013-03-28 04:28:00,
2013-03-27 22:33:00,34.7,29.1,30.71,NNW,338,0.0,3.0,80,0.00,,,0.00,meteohub,2013-03-28 04:33:00,
2013-03-27 22:38:00,34.3,28.6,30.71,NNW,338,3.0,4.0,79,0.00,,,0.00,meteohub,2013-03-28 04:38:00,
2013-03-27 22:43:00,34.2,29.3,30.71,NNW,338,3.0,4.0,82,0.00,,,0.00,meteohub,2013-03-28 04:43:00,
2013-03-27 22:48:00,34.3,30.6,30.71,NNW,338,3.0,4.0,86,0.00,,,0.00,meteohub,2013-03-28 04:48:00,
2013-03-27 22:53:00,34.3,30.6,30.71,NNW,338,1.0,5.0,86,0.00,,,0.00,meteohub,2013-03-28 04:53:00,
2013-03-27 22:59:00,34.5,31.6,30.71,NNW,338,6.0,6.0,89,0.00,,,0.00,meteohub,2013-03-28 04:59:00,
2013-03-27 23:04:00,36.0,33.3,30.71,NNW,338,4.0,5.0,90,0.00,,,0.00,meteohub,2013-03-28 05:04:00,
2013-03-27 23:10:00,36.9,33.4,30.71,NNW,338,4.0,8.0,87,0.00,,,0.00,meteohub,2013-03-28 05:10:00,
2013-03-27 23:15:00,37.0,33.3,30.71,NNW,338,3.0,8.0,86,0.00,,,0.00,meteohub,2013-03-28 05:15:00,
2013-03-27 23:20:00,36.7,32.4,30.71,NNE,22,6.0,7.0,84,0.00,,,0.00,meteohub,2013-03-28 05:20:00,
2013-03-27 23:26:00,37.2,32.5,30.71,NNW,338,4.0,7.0,83,0.00,,,0.00,meteohub,2013-03-28 05:26:00,
2013-03-27 23:31:00,35.8,29.8,30.71,NNW,338,3.0,7.0,79,0.00,,,0.00,meteohub,2013-03-28 05:31:00,
2013-03-27 23:36:00,35.8,31.1,30.68,NNW,338,4.0,7.0,83,0.00,,,0.00,meteohub,2013-03-28 05:36:00,
2013-03-27 23:41:00,35.1,30.2,30.68,NNW,338,4.0,4.0,82,0.00,,,0.00,meteohub,2013-03-28 05:41:00,
2013-03-27 23:47:00,35.6,31.3,30.68,NNW,338,3.0,5.0,84,0.00,,,0.00,meteohub,2013-03-28 05:47:00,
2013-03-27 23:52:00,35.4,30.6,30.68,SSE,158,1.0,5.0,82,0.00,,,0.00,meteohub,2013-03-28 05:52:00,
2013-03-27 23:57:00,34.3,29.1,30.68,ESE,112,2.0,4.0,81,0.00,,,0.00,meteohub,2013-03-28 05:57:00,